This is the latest recevied weather packets stored in our database for station/object FREPRT-WX. If no packets are shown the sender has not sent any weather packets the latest 1 day(s).
| Time | Temp. | Humidity | Pressure | Rain* | Wind** | Luminosity | Snow |
|---|---|---|---|---|---|---|---|
| 1778044539 | 6.11° C | 71% | 981 hPa | 0 mm | 2.24 m/s, 312° | - | - |
| 1778043675 | 6.11° C | 71% | 981 hPa | 0 mm | 1.79 m/s, 309° | - | - |
| 1778042740 | 6.67° C | 64% | 981.8 hPa | 0 mm | 1.79 m/s, 297° | - | - |
| 1778041855 | 6.67° C | 68% | 981.3 hPa | 0 mm | 2.24 m/s, 291° | - | - |
| 1778040940 | 6.67° C | 68% | 981.3 hPa | 0 mm | 1.79 m/s, 284° | - | - |
| 1778040077 | 6.67° C | 68% | 981.3 hPa | 0 mm | 1.79 m/s, 283° | - | - |
| 1778039145 | 6.67° C | 61% | 981 hPa | 0 mm | 2.24 m/s, 265° | - | - |
| 1778037339 | 7.22° C | 61% | 980.9 hPa | 0 mm | 1.34 m/s, 262° | - | - |
| 1778036478 | 7.22° C | 61% | 980.9 hPa | 0 mm | 1.79 m/s, 261° | - | - |
| 1778035539 | 7.22° C | 56% | 981 hPa | 0 mm | 1.34 m/s, 260° | - | - |
| 1778034657 | 7.78° C | 55% | 981.1 hPa | 0 mm | 1.79 m/s, 264° | - | - |
| 1778033738 | 7.78° C | 55% | 981.1 hPa | 0 mm | 1.79 m/s, 270° | - | - |
| 1778032863 | 7.78° C | 55% | 981.1 hPa | 0 mm | 1.34 m/s, 262° | - | - |
| 1778031938 | 7.78° C | 49% | 980.7 hPa | 0 mm | 1.34 m/s, 273° | - | - |
| 1778031060 | 8.33° C | 49% | 980.7 hPa | 0 mm | 1.79 m/s, 278° | - | - |
| 1778030138 | 7.78° C | 49% | 980.6 hPa | 0 mm | 2.24 m/s, 283° | - | - |
| 1778029265 | 7.78° C | 49% | 980.6 hPa | 0 mm | 2.24 m/s, 285° | - | - |
| 1778028337 | 8.89° C | 41% | 980.7 hPa | 0 mm | 1.79 m/s, 283° | - | - |
| 1778027452 | 9.44° C | 39% | 981 hPa | 0 mm | 2.24 m/s, 285° | - | - |
| 1778026538 | 10° C | 39% | 981 hPa | 0 mm | 2.68 m/s, 291° | - | - |
| 1778025671 | 10° C | 39% | 981 hPa | 0 mm | 3.13 m/s, 292° | - | - |
| 1778024738 | 10.56° C | 36% | 980.6 hPa | 0 mm | 3.58 m/s, 294° | - | - |
| 1778023855 | 10.56° C | 35% | 980.7 hPa | 0 mm | 4.02 m/s, 291° | - | - |
| 1778022939 | 11.11° C | 35% | 980.7 hPa | 0 mm | 4.47 m/s, 290° | - | - |
| 1778022065 | 11.11° C | 35% | 980.7 hPa | 0 mm | 4.92 m/s, 288° | - | - |
* Rain latest hour (hover to see other rain measurements)
** Current wind speed in m/s (hover to see current wind gust speed)